ONEWEB-0082, 45452

Orbit data source: Space-Track

ONEWEB-0082, 45452 is a payload satellite owned by One Web (UK) in LEO that was launched on Sat, 21 Mar 2020 UTC via a SOYUZ-2-1B launch vehicle from the Tyuratam Missile And Space Complex (TTMTR). Payload-class satellites include a variety of spacecraft equipped with specific instruments for various scientific and technological missions. These include communications satellites like Starlink; space stations such as the ISS; scientific satellites like the Hubble; Earth observation satellites from companies like Planet Labs, Umbra, and HawkEye 360; GPS; miniature CubeSats for education and research; and military/defense satellites.

Loading next visibility...
Identifier
45452, 2020-020AE
Orbit
LEO
Last TLE update
20 hours ago
Origin
Manufacturer
One Web
Mission
Operational Commercial Communications
Bus & Motor
ARROW, Unknown motor
Mass
148 kg wet, ~140 kg dry
Launch date (UTC)
2020-03-21 (5 years ago)
Launch vehicle
SOYUZ-2-1B
Launch site
Tyuratam Missile And Space Complex (TTMTR)
Object type
Payload
Rocket body
Debris
Shape & HBR
Trap Box + 2 Pan, 5 m
Radar Cross Section
2.957 m², Medium (>0.1 m² and < 1m²)

Expand to show TLE details & history

TLE from 20 hours ago
0 ONEWEB-0082
1 45452U 20020AE  25128.42623641 -.00000184  00000-0 -55535-3 0  9991
2 45452  87.8810 101.7098 0001853  82.0329 278.1009 13.11417917249626
Epoch: 2025-05-08T10:13Z
Definitive object data (Epoch: 2025-05-08T10:13:46.825Z)
Latitude
-0.00006°
Longitude
81.76779°
Altitude
1,220.37 km
Speed
7.244 km/s
True Right ascension
06h 46m 50s
True Declination
0° 00' 00"
Sunlit
Object was in daylight at TLE epoch
Visualization TLE readout
Latitude
-7.8752°
Longitude
81.30887°
Altitude
1,221.872 km
Speed
7.243 km/s
Apparent Right ascension
05h 07m 02s
Apparent Declination
-25° 39' 51"
Sunlit
Object is in daylight
Visualization observer readout
Local Sidereal Time
14:28:44
Azimuth
281.193° WNW
Elevation
-54.171°
Doppler factor
1
Orbital elements
Apogee altitude
1,216.204 km
Perigee altitude
1,213.39 km
Semi-major axis
7,592.934 km
Eccentricity
0.0001853
Inclination
87.881°
RAAN
101.7098°
Arg. of periapsis
82.0329°
True anomaly
278.07988°
Mean anomaly
278.1009°
Eccentric anomaly
278.09039°
Mean motion
3.28041 °/min
BSTAR
-0.00055535
Orbital period
109.74 mins
Loading maneuver chart data...
Loading SW <> Apogee altitude chart data...
Loading historical data...
Loading historical data...
Loading historical data...
Loading historical data...
Loading historical data...
Loading historical data...
Loading historical data...

ONEWEB-0082 Visibility forecast

Observer location: undefined°, undefined°

Span
Click to sort rows by Start time (UTC) header in descending order
Start Az.
Max El. time (UTC)
Max El. Az.
Max El.
End time (UTC)
End Az.
9 mins2025-05-09 08:49:55.730Z35.807° NE2025-05-09 08:53:55.730Z72.259° E18.717°2025-05-09 08:58:55.730Z117.133° SE
13 mins2025-05-09 10:38:55.730Z353.53° N2025-05-09 10:44:55.730Z260.031° W43.507°2025-05-09 10:51:55.730Z190.708° SSW
9 mins2025-05-09 21:09:55.730Z115.074° SE2025-05-09 21:13:55.730Z77.064° E20.804°2025-05-09 21:18:55.730Z30.935° NE
12 mins2025-05-09 22:57:55.730Z195.366° SSW2025-05-09 23:02:55.730Z256.629° W41.92°2025-05-09 23:09:55.730Z353.593° N
|